This demonstration page uses our WeatherBlox Daily Observations layout. Learn more.

Left ArrowRight Arrow

39.01783, -85.05884

Hourly Observations for March 15, 2020

Temp ( °F °C ) Dew Point ( °F °C ) Humidity (%) Winds ( mph kmh ) Pressure ( in mb ) Visibility ( mi km ) Precip ( " mm )
12:52 am 00:52 Cloudy 35 1.7 31 -0.6 85 85 NE 12 19 30.39 1029 10 16 0.00 0.00
1:49 am 01:49 Cloudy 36 2 30 -1 81 81 NE 10 17 30.44 1031 10 16 0.00 0.00
1:52 am 01:52 Cloudy 36 2.2 32 0 86 86 NE 8 13 30.41 1030 10 16 0.00 0.00
2:52 am 02:52 Cloudy 36 2.2 31 -0.6 82 82 NNE 10 17 30.42 1030 10 16 0.00 0.00
3:52 am 03:52 Cloudy 35 1.7 30 -1.1 82 82 NNE 12 19 30.43 1030 10 16 0.00 0.00
4:52 am 04:52 Cloudy 35 1.7 29 -1.7 78 78 NNE 15 24 30.43 1031 10 16 0.00 0.00
5:52 am 05:52 Cloudy 34 1.1 29 -1.7 82 82 NNE 13 20 30.45 1031 10 16 0.00 0.00
6:52 am 06:52 Cloudy 34 1.1 28 -2.2 79 79 NNE 15 24 30.47 1032 10 16 0.00 0.00
7:52 am 07:52 Cloudy 34 1.1 28 -2.2 79 79 NE 9 15 30.49 1032 10 16 0.00 0.00
8:28 am 08:28 Cloudy 34 1.1 28 -2.2 79 79 NNE 14 22 30.51 1033 10 16 0.00 0.00
8:52 am 08:52 Cloudy 34 1.1 28 -2.2 79 79 NNE 13 20 30.50 1033 10 16 0.00 0.00
9:52 am 09:52 Cloudy 34 1.1 28 -2.2 79 79 NE 14 22 30.52 1033 10 16 0.00 0.00
10:52 am 10:52 Cloudy 35 1.7 28 -2.2 76 76 NNE 14 22 30.54 1034 10 16 0.00 0.00
11:52 am 11:52 Cloudy 37 2.8 28 -2.2 70 70 NE 14 22 30.55 1035 10 16 0.00 0.00
12:52 pm 12:52 Mostly Cloudy 41 5 30 -1.1 65 65 NE 8 13 30.54 1034 10 16 0.00 0.00
1:19 pm 13:19 Partly Cloudy 42 5.6 31 -0.6 65 65 NE 12 19 30.54 1034 10 16 0.00 0.00
1:52 pm 13:52 Partly Cloudy 44 6.7 30 -1.1 58 58 NE 10 17 30.51 1033 10 16 0.00 0.00
2:52 pm 14:52 Mostly Cloudy 45 7.2 30 -1.1 56 56 NE 15 24 30.48 1032 10 16 0.00 0.00
3:52 pm 15:52 Cloudy 45 7.2 31 -0.6 58 58 NE 14 22 30.47 1032 10 16 0.00 0.00
4:52 pm 16:52 Cloudy 44 6.7 31 -0.6 60 60 NNE 14 22 30.47 1032 10 16 0.00 0.00
5:52 pm 17:52 Cloudy 43 6.1 30 -1.1 60 60 NNE 13 20 30.47 1032 10 16 0.00 0.00
6:52 pm 18:52 Cloudy 42 5.6 30 -1.1 62 62 NE 10 17 30.48 1032 10 16 0.00 0.00
7:52 pm 19:52 Cloudy 42 5.6 31 -0.6 65 65 NE 9 15 30.48 1032 10 16 0.00 0.00
8:52 pm 20:52 Cloudy 42 5.6 31 -0.6 65 65 NNE 7 11 30.48 1032 10 16 0.00 0.00
9:52 pm 21:52 Cloudy 42 5.6 31 -0.6 65 65 NE 6 9 30.47 1032 10 16 0.00 0.00
10:52 pm 22:52 Cloudy 42 5.6 31 -0.6 65 65 NNE 6 9 30.46 1032 10 16 0.00 0.00
11:52 pm 23:52 Cloudy 42 5.6 32 0 68 68 NE 9 15 30.46 1032 10 16 0.00 0.00

Powered by AerisWeather